FW1440 Weather Reports


time (UTC)temp
F
wind
direction
speed
knots
gust
knots
rain 1hr
in
rain 24hr
in
rain mn
in
humidity
%
barometer
mb
20260504001810 70 277 0.9 3.5 0.00 0.00 0.00 52 1008.3
20260504000316 71 221 0.9 2.6 0.00 0.00 0.00 52 1008.4
20260503235311 71 197 1.7 6.1 0.00 0.00 0.00 50 1008.7
20260503234810 71 133 1.7 3.5 0.00 0.00 0.00 45 1008.7
20260503234308 72 167 1.7 6.1 0.00 0.00 0.00 46 1008.8
20260503233808 73 193 1.7 6.1 0.00 0.00 0.00 46 1008.8
20260503233306 73 220 0.9 3.5 0.00 0.00 0.00 44 1008.8
20260503232806 72 151 1.7 3.5 0.00 0.00 0.00 44 1008.9
20260503232306 72 182 1.7 3.5 0.00 0.00 0.00 45 1009.0
20260503231804 73 168 0.9 3.5 0.00 0.00 0.00 45 1009.0
20260503231303 73 185 0.9 2.6 0.00 0.00 0.00 49 1009.1
20260503230800 72 230 0.9 2.6 0.00 0.00 0.00 50 1009.2
20260503230257 72 164 0.9 2.6 0.00 0.00 0.00 48 1009.2
20260503225758 71 164 0.9 2.6 0.00 0.00 0.00 48 1009.2
20260503225258 72 166 0.9 2.6 0.00 0.00 0.00 52 1009.3
20260503224758 71 166 1.7 4.3 0.00 0.00 0.00 53 1009.3
20260503224258 70 120 1.7 4.3 0.00 0.00 0.00 53 1009.4
20260503223758 70 130 0.9 2.6 0.00 0.00 0.00 50 1009.6
20260503223258 70 162 0.9 3.5 0.00 0.00 0.00 52 1009.7
20260503222758 70 160 1.7 3.5 0.00 0.00 0.00 54 1009.7
20260503222258 70 136 1.7 3.5 0.00 0.00 0.00 53 1009.7
20260503221758 71 145 0.9 3.5 0.00 0.00 0.00 49 1009.8
20260503221257 72 66 0.9 2.6 0.00 0.00 0.00 48 1009.8
20260503220754 72 168 0.9 2.6 0.00 0.00 0.00 52 1009.9
20260503220255 72 142 0.9 2.6 0.00 0.00 0.00 52 1010.0
20260503215754 72 152 0.9 2.6 0.00 0.00 0.00 53 1010.0
20260503215255 71 152 1.7 3.5 0.00 0.00 0.00 54 1010.0
20260503214251 73 148 1.7 5.2 0.00 0.00 0.00 50 1010.2
20260503213752 74 227 1.7 3.5 0.00 0.00 0.00 52 1010.3
20260503212748 74 191 0.9 3.5 0.00 0.00 0.00 54 1010.3
20260503212246 73 181 0.9 2.6 0.00 0.00 0.00 54 1010.3
20260503211747 72 226 1.7 4.3 0.00 0.00 0.00 58 1010.3
20260503211246 70 197 1.7 4.3 0.00 0.00 0.00 57 1010.5
20260503210744 69 211 1.7 5.2 0.00 0.00 0.00 60 1010.5
20260503210243 69 161 1.7 5.2 0.00 0.00 0.00 56 1010.6
20260503205737 71 172 1.7 5.2 0.00 0.00 0.00 54 1010.7
20260503205231 71 133 0.9 2.6 0.00 0.00 0.00 56 1010.7
20260503204732 72 185 0.9 3.5 0.00 0.00 0.00 53 1010.8
20260503204232 72 200 0.9 3.5 0.00 0.00 0.00 57 1010.8
20260503203730 72 154 0.9 2.6 0.00 0.00 0.00 55 1010.9
20260503203230 72 170 0.9 2.6 0.00 0.00 0.00 55 1011.0
20260503202730 72 147 0.9 1.7 0.00 0.00 0.00 57 1011.2
20260503201728 71 152 0.9 2.6 0.00 0.00 0.00 55 1011.3
20260503201228 71 155 0.9 3.5 0.00 0.00 0.00 61 1011.3
20260503195725 72 272 0.9 2.6 0.00 0.00 0.00 58 1011.4
20260503195226 72 354 0.9 1.7 0.00 0.00 0.00 60 1011.4
20260503194726 71 1 0.9 2.6 0.00 0.00 0.00 62 1011.4
20260503194226 70 141 0.9 2.6 0.00 0.00 0.00 62 1011.4
20260503193724 71 145 0.9 2.6 0.00 0.00 0.00 58 1011.5
20260503193223 71 81 0.9 2.6 0.00 0.00 0.00 61 1011.5
20260503191723 72 176 1.7 3.5 0.00 0.00 0.00 55 1011.5
20260503191222 72 247 1.7 3.5 0.00 0.00 0.00 56 1011.5
20260503190721 73 247 1.7 3.5 0.00 0.00 0.00 55 1011.6
20260503190222 72 248 1.7 3.5 0.00 0.00 0.00 56 1011.7
20260503185719 72 199 1.7 3.5 0.00 0.00 0.00 56 1011.8
20260503185220 72 203 1.7 2.6 0.00 0.00 0.00 55 1011.8
20260503184719 72 225 1.7 3.5 0.00 0.00 0.00 56 1011.8
20260503183718 71 232 0.9 3.5 0.00 0.00 0.00 60 1012.0
20260503183217 70 206 0.9 2.6 0.00 0.00 0.00 60 1012.1
20260503182721 68 195 0.9 2.6 0.00 0.00 0.00 65 1012.1
20260503182216 68 175 1.7 3.5 0.00 0.00 0.00 63 1012.2
20260503181716 67 174 1.7 3.5 0.00 0.00 0.00 61 1012.1
20260503180721 68 148 1.7 3.5 0.00 0.00 0.00 63 1012.1
20260503180216 68 143 0.9 2.6 0.00 0.00 0.00 59 1012.2
20260503175713 70 153 0.9 2.6 0.00 0.00 0.00 58 1012.3
20260503175213 70 272 0.9 2.6 0.00 0.00 0.00 58 1012.2
20260503174713 70 256 0.9 2.6 0.00 0.00 0.00 58 1012.3
20260503174214 70 250 0.9 2.6 0.00 0.00 0.00 60 1012.3
20260503173713 69 266 0.9 2.6 0.00 0.00 0.00 59 1012.3
20260503172713 69 256 0.9 3.5 0.00 0.00 0.00 59 1012.4
20260503172214 69 278 0.9 1.7 0.00 0.00 0.00 60 1012.5
20260503171708 69 285 0.0 1.7 0.00 0.00 0.00 61 1012.5
20260503171208 69 285 0.9 1.7 0.00 0.00 0.00 63 1012.6
20260503170708 69 296 0.9 1.7 0.00 0.00 0.00 63 1012.6
20260503170206 69 296 0.9 1.7 0.00 0.00 0.00 63 1012.6
20260503150203 60 101 0.0 1.7 0.00 0.00 0.00 76 1013.1
20260503140146 56 331 0.0 0.0 0.00 0.00 0.00 82 1012.9
20260503131133 53 49 0.0 0.0 0.00 0.00 0.00 84 1012.6
20260503130630 53 49 0.0 0.0 0.00 0.00 0.00 84 1012.4
20260503130129 53 49 0.0 0.0 0.00 0.00 0.00 84 1012.4
20260503110537 55 49 0.9 1.7 0.00 0.00 0.00 78 1012.7
20260503090500 55 54 0.9 2.6 0.00 0.00 0.00 75 1012.5
20260503081449 53 59 0.9 1.7 0.00 0.00 0.00 79 1012.5
20260503080949 53 59 0.0 1.7 0.00 0.00 0.00 78 1012.5
20260503080447 53 59 0.0 1.7 0.00 0.00 0.00 77 1012.5
20260503072940 54 59 0.0 0.0 0.00 0.00 0.00 75 1012.4
20260503072442 55 59 0.0 0.0 0.00 0.00 0.00 74 1012.4
20260503071938 55 59 0.0 0.0 0.00 0.00 0.00 74 1012.4
20260503071439 55 59 0.0 0.9 0.00 0.00 0.00 73 1012.4
20260503054927 59 59 0.9 1.7 0.00 0.00 0.00 65 1012.2
20260503053922 59 59 0.0 1.7 0.00 0.00 0.00 64 1012.2
20260503052924 59 59 0.0 0.0 0.00 0.00 0.00 64 1012.2
20260503052423 60 59 0.0 1.7 0.00 0.00 0.00 63 1012.2
20260503051922 60 59 0.9 1.7 0.00 0.00 0.00 62 1012.2
20260503050919 60 59 0.0 2.6 0.00 0.00 0.00 61 1012.2
20260503050420 60 59 0.9 2.6 0.00 0.00 0.00 61 1012.2
20260503045920 60 25 0.0 2.6 0.00 0.00 0.00 60 1012.2
20260503045414 60 8 0.9 5.2 0.00 0.00 0.00 60 1012.1
20260503044918 60 11 0.9 5.2 0.00 0.00 0.00 61 1012.1
20260503044416 60 22 0.0 3.5 0.00 0.00 0.00 61 1012.2
20260503043916 60 9 0.0 1.7 0.00 0.00 0.00 61 1012.1
20260503043413 61 9 0.0 1.7 0.00 0.00 0.00 60 1012.1
20260503042914 61 9 0.9 1.7 0.00 0.00 0.00 60 1012.0
20260503042413 61 9 0.9 2.6 0.00 0.00 0.00 59 1012.0
20260503041911 61 9 0.0 2.6 0.00 0.00 0.00 59 1012.0
20260503041411 61 314 0.0 1.7 0.00 0.00 0.00 59 1012.0
20260503040911 62 314 0.9 1.7 0.00 0.00 0.00 58 1011.9
20260503040409 62 314 0.0 1.7 0.00 0.00 0.00 57 1011.8
20260503035908 63 314 0.0 1.7 0.00 0.00 0.00 55 1011.7
20260503034858 63 5 0.9 3.5 0.00 0.00 0.00 55 1011.7
20260503034353 63 51 0.9 2.6 0.00 0.00 0.00 55 1011.6
20260503033847 63 86 0.9 2.6 0.00 0.00 0.00 56 1011.6
20260503033347 63 81 0.9 2.6 0.00 0.00 0.00 55 1011.5
20260503032845 63 81 0.9 2.6 0.00 0.00 0.00 55 1011.4
20260503031845 63 103 0.9 2.6 0.00 0.00 0.00 54 1011.4
20260503031346 64 104 0.9 2.6 0.00 0.00 0.00 55 1011.3
20260503030345 64 87 0.9 2.6 0.00 0.00 0.00 54 1011.3
20260503025846 64 182 0.9 1.7 0.00 0.00 0.00 54 1011.3
20260503025345 64 200 0.0 1.7 0.00 0.00 0.00 55 1011.3
20260503024845 65 200 0.9 1.7 0.00 0.00 0.00 54 1011.2
20260503024350 65 200 0.9 2.6 0.00 0.00 0.00 53 1011.3
20260503023845 65 200 0.0 2.6 0.00 0.00 0.00 54 1011.3
20260503023343 65 105 0.0 1.7 0.00 0.00 0.00 53 1011.3
20260503022339 65 103 0.9 1.7 0.00 0.00 0.00 54 1011.3
20260503021837 65 103 0.0 1.7 0.00 0.00 0.00 55 1011.3
20260503021337 66 103 0.0 1.7 0.00 0.00 0.00 55 1011.3
20260503020835 66 103 0.0 1.7 0.00 0.00 0.00 54 1011.3
20260503020335 66 104 0.0 1.7 0.00 0.00 0.00 54 1011.4
20260503015833 66 103 0.0 1.7 0.00 0.00 0.00 53 1011.4
20260503015333 66 104 0.9 2.6 0.00 0.00 0.00 54 1011.5
20260503014833 66 104 0.9 2.6 0.00 0.00 0.00 54 1011.5
20260503014330 66 104 0.9 4.3 0.00 0.00 0.00 53 1011.5
20260503013330 67 151 0.9 3.5 0.00 0.00 0.00 53 1011.6
20260503012831 67 176 0.9 3.5 0.00 0.00 0.00 51 1011.6
20260503012326 67 35 1.7 4.3 0.00 0.00 0.00 53 1011.8
20260503011820 67 342 0.9 4.3 0.00 0.00 0.00 51 1011.8
20260503011321 68 294 0.9 2.6 0.00 0.00 0.00 52 1011.8
20260503010823 67 178 0.0 1.7 0.00 0.00 0.00 54 1011.8
20260503010320 67 178 0.9 1.7 0.00 0.00 0.00 54 1011.8
20260503005819 67 178 0.9 1.7 0.00 0.00 0.00 54 1011.9
20260503005317 67 178 0.9 1.7 0.00 0.00 0.00 54 1011.9
20260503004817 67 178 0.9 2.6 0.00 0.00 0.00 55 1011.9
20260503004316 67 178 0.9 2.6 0.00 0.00 0.00 53 1012.0
20260503003816 67 178 0.9 2.6 0.00 0.00 0.00 57 1012.0
20260503003317 67 153 0.9 2.6 0.00 0.00 0.00 57 1012.1
20260503002817 67 149 0.9 2.6 0.00 0.00 0.00 58 1012.1
20260503002317 67 146 0.9 2.6 0.00 0.00 0.00 58 1012.0